TimeEDT,TemperatureF,Dew PointF,Humidity,Sea Level PressureIn,VisibilityMPH,Wind Direction,Wind SpeedMPH,Gust SpeedMPH,PrecipitationIn,Events,Conditions,WindDirDegrees,DateUTC
12:15 AM,75.2,62.6,65,30.19,10.0,SSE,6.9,-,N/A,,Clear,160,2013-05-28 04:15:00
12:35 AM,75.2,62.6,65,30.19,10.0,South,6.9,-,N/A,,Clear,180,2013-05-28 04:35:00
12:55 AM,73.4,62.6,69,30.19,10.0,South,5.8,-,N/A,,Clear,180,2013-05-28 04:55:00
1:15 AM,73.4,60.8,65,30.19,10.0,South,5.8,-,N/A,,Clear,170,2013-05-28 05:15:00
1:35 AM,71.6,60.8,69,30.19,10.0,South,4.6,-,N/A,,Clear,180,2013-05-28 05:35:00
1:55 AM,71.6,60.8,69,30.19,10.0,South,6.9,-,N/A,,Clear,180,2013-05-28 05:55:00
2:15 AM,71.6,60.8,69,30.19,10.0,South,5.8,-,N/A,,Clear,180,2013-05-28 06:15:00
2:35 AM,69.8,59.0,68,30.19,10.0,South,4.6,-,N/A,,Clear,190,2013-05-28 06:35:00
2:55 AM,69.8,59.0,68,30.18,10.0,South,6.9,-,N/A,,Clear,180,2013-05-28 06:55:00
3:15 AM,68.0,59.0,73,30.18,10.0,South,5.8,-,N/A,,Clear,190,2013-05-28 07:15:00
3:35 AM,68.0,59.0,73,30.18,10.0,South,4.6,-,N/A,,Clear,180,2013-05-28 07:35:00
3:55 AM,68.0,60.8,78,30.17,10.0,South,4.6,-,N/A,,Clear,170,2013-05-28 07:55:00
4:15 AM,68.0,60.8,78,30.17,10.0,South,5.8,-,N/A,,Clear,180,2013-05-28 08:15:00
4:35 AM,66.2,60.8,83,30.17,10.0,South,5.8,-,N/A,,Clear,190,2013-05-28 08:35:00
4:55 AM,66.2,60.8,83,30.18,10.0,South,6.9,-,N/A,,Clear,190,2013-05-28 08:55:00
5:15 AM,66.2,62.6,88,30.18,10.0,South,4.6,-,N/A,,Clear,180,2013-05-28 09:15:00
5:35 AM,66.2,62.6,88,30.18,10.0,South,5.8,-,N/A,,Clear,180,2013-05-28 09:35:00
5:55 AM,66.2,62.6,88,30.19,10.0,South,4.6,-,N/A,,Clear,180,2013-05-28 09:55:00
6:15 AM,64.4,62.6,94,30.20,10.0,South,3.5,-,N/A,,Clear,190,2013-05-28 10:15:00
6:35 AM,64.4,64.4,100,30.20,10.0,Calm,Calm,-,N/A,,Clear,0,2013-05-28 10:35:00
6:55 AM,64.4,64.4,100,30.20,10.0,Calm,Calm,-,N/A,,Clear,0,2013-05-28 10:55:00
7:15 AM,64.4,64.4,100,30.21,10.0,Calm,Calm,-,N/A,,Clear,0,2013-05-28 11:15:00
7:35 AM,68.0,64.4,88,30.21,10.0,SW,3.5,-,N/A,,Clear,220,2013-05-28 11:35:00
7:55 AM,68.0,64.4,88,30.21,10.0,SSW,3.5,-,N/A,,Clear,210,2013-05-28 11:55:00
8:15 AM,68.0,64.4,88,30.22,10.0,SW,3.5,-,N/A,,Clear,220,2013-05-28 12:15:00
8:35 AM,69.8,64.4,83,30.23,10.0,SW,5.8,-,N/A,,Clear,230,2013-05-28 12:35:00
8:55 AM,73.4,66.2,78,30.23,10.0,SW,8.1,-,N/A,,Clear,230,2013-05-28 12:55:00
9:15 AM,73.4,66.2,78,30.23,10.0,WSW,5.8,-,N/A,,Clear,250,2013-05-28 13:15:00
9:35 AM,75.2,66.2,73,30.23,10.0,WSW,4.6,-,N/A,,Clear,250,2013-05-28 13:35:00
9:55 AM,75.2,64.4,69,30.24,10.0,SW,5.8,-,N/A,,Clear,230,2013-05-28 13:55:00
10:15 AM,75.2,62.6,65,30.24,10.0,SSW,6.9,-,N/A,,Clear,210,2013-05-28 14:15:00
10:35 AM,77.0,62.6,61,30.24,10.0,SW,4.6,-,N/A,,Clear,230,2013-05-28 14:35:00
10:55 AM,78.8,62.6,57,30.23,10.0,Calm,Calm,-,N/A,,Clear,0,2013-05-28 14:55:00
11:15 AM,80.6,62.6,54,30.24,10.0,Calm,Calm,-,N/A,,Clear,0,2013-05-28 15:15:00
11:35 AM,80.6,62.6,54,30.24,10.0,South,3.5,-,N/A,,Scattered Clouds,180,2013-05-28 15:35:00
11:55 AM,80.6,62.6,54,30.23,10.0,SSE,6.9,-,N/A,,Scattered Clouds,150,2013-05-28 15:55:00
12:15 PM,80.6,60.8,51,30.23,10.0,South,5.8,-,N/A,,Clear,180,2013-05-28 16:15:00
12:35 PM,80.6,60.8,51,30.23,10.0,Calm,Calm,-,N/A,,Clear,0,2013-05-28 16:35:00
12:55 PM,82.4,62.6,51,30.23,10.0,Calm,Calm,-,N/A,,Scattered Clouds,0,2013-05-28 16:55:00
1:15 PM,82.4,60.8,48,30.22,10.0,South,5.8,-,N/A,,Scattered Clouds,180,2013-05-28 17:15:00
1:35 PM,82.4,60.8,48,30.21,10.0,SE,6.9,-,N/A,,Clear,140,2013-05-28 17:35:00
1:55 PM,82.4,62.6,51,30.21,10.0,ESE,5.8,-,N/A,,Scattered Clouds,120,2013-05-28 17:55:00
2:15 PM,86.0,60.8,43,30.20,10.0,SE,6.9,-,N/A,,Scattered Clouds,130,2013-05-28 18:15:00
2:55 PM,86.0,60.8,43,30.18,10.0,SSE,6.9,-,N/A,,Unknown,150,2013-05-28 18:55:00
3:15 PM,86.0,60.8,43,30.18,10.0,ESE,5.8,-,N/A,,Scattered Clouds,120,2013-05-28 19:15:00
3:35 PM,86.0,60.8,43,30.17,10.0,SSE,8.1,-,N/A,,Scattered Clouds,160,2013-05-28 19:35:00
3:55 PM,84.2,60.8,45,30.17,10.0,SE,4.6,-,N/A,,Clear,130,2013-05-28 19:55:00
4:15 PM,86.0,59.0,40,30.16,10.0,SE,3.5,-,N/A,,Clear,130,2013-05-28 20:15:00
4:35 PM,86.0,59.0,40,30.16,10.0,SSE,8.1,-,N/A,,Scattered Clouds,150,2013-05-28 20:35:00
4:55 PM,86.0,59.0,40,30.15,10.0,ESE,4.6,16.1,N/A,,Scattered Clouds,110,2013-05-28 20:55:00
5:15 PM,86.0,59.0,40,30.15,10.0,SE,9.2,-,N/A,,Scattered Clouds,140,2013-05-28 21:15:00
5:35 PM,84.2,59.0,42,30.15,10.0,SSE,8.1,-,N/A,,Clear,150,2013-05-28 21:35:00
5:55 PM,86.0,57.2,37,30.14,10.0,SSE,5.8,-,N/A,,Clear,150,2013-05-28 21:55:00
6:15 PM,84.2,59.0,42,30.14,10.0,SSE,6.9,-,N/A,,Clear,160,2013-05-28 22:15:00
6:35 PM,82.4,59.0,45,30.14,10.0,SSE,4.6,-,N/A,,Clear,160,2013-05-28 22:35:00
6:55 PM,86.0,59.0,40,30.14,10.0,SSE,6.9,-,N/A,,Clear,150,2013-05-28 22:55:00
7:15 PM,82.4,59.0,45,30.14,10.0,South,5.8,-,N/A,,Clear,170,2013-05-28 23:15:00
7:35 PM,82.4,60.8,48,30.15,10.0,South,5.8,-,N/A,,Clear,170,2013-05-28 23:35:00
7:55 PM,82.4,60.8,48,30.15,10.0,SSE,5.8,-,N/A,,Clear,160,2013-05-28 23:55:00
8:15 PM,80.6,60.8,51,30.16,10.0,SSE,4.6,-,N/A,,Clear,160,2013-05-29 00:15:00
8:35 PM,78.8,64.4,61,30.16,10.0,SSE,5.8,-,N/A,,Clear,160,2013-05-29 00:35:00
8:55 PM,77.0,62.6,61,30.16,10.0,SSE,3.5,-,N/A,,Clear,150,2013-05-29 00:55:00
9:15 PM,77.0,62.6,61,30.17,10.0,SSE,6.9,-,N/A,,Clear,150,2013-05-29 01:15:00
9:35 PM,75.2,60.8,61,30.17,10.0,SSE,5.8,-,N/A,,Clear,150,2013-05-29 01:35:00
9:55 PM,75.2,60.8,61,30.18,10.0,SSE,8.1,-,N/A,,Clear,150,2013-05-29 01:55:00
10:15 PM,75.2,62.6,65,30.19,10.0,SSE,6.9,-,N/A,,Clear,160,2013-05-29 02:15:00
10:35 PM,75.2,62.6,65,30.19,10.0,SSE,6.9,-,N/A,,Clear,150,2013-05-29 02:35:00
10:55 PM,75.2,62.6,65,30.19,10.0,SSE,8.1,-,N/A,,Clear,150,2013-05-29 02:55:00
11:15 PM,75.2,62.6,65,30.19,10.0,SSE,8.1,-,N/A,,Clear,150,2013-05-29 03:15:00
11:35 PM,75.2,62.6,65,30.19,10.0,SSE,8.1,-,N/A,,Clear,160,2013-05-29 03:35:00
11:55 PM,73.4,62.6,69,30.20,10.0,SSE,5.8,-,N/A,,Clear,160,2013-05-29 03:55:00